Change the Weather History Date:

Wednesday, September 11, 2013

  Actual Average Record
Temperature  
Mean Temperature 73 °F 65 °F  
Max Temperature 91 °F 82 °F 100 °F (1953)
Min Temperature 54 °F 48 °F 27 °F (1916)
Degree Days  
Heating Degree Days 0 3  
Month to date heating degree days 0 20  
Cooling Degree Days 8 4  
Month to date cooling degree days 89 52  
Growing Degree Days 22 (Base 50)    
Moisture  
Dew Point 43 °F    
Average Humidity 38    
Maximum Humidity 66    
Minimum Humidity 16    
Precipitation  
Precipitation 0.00 in 0.02 in 1.68 in (1980)
Month to date precipitation 0.01 0.15  
Sea Level Pressure  
Sea Level Pressure 29.96 in    
Wind  
Wind Speed 5 mph (ENE)    
Max Wind Speed 14 mph    
Max Gust Speed 17 mph    
Visibility 10 miles    
Events      
T = Trace of Precipitation, MM = Missing Value Source: NWS Daily Summary

Daily Weather History Graph

Daily Weather History Graph

Search for Another Location

Airport or City:

Trip Planner

Search our weather history database for the weather conditions in past years. The results will help you decide how hot, cold, wet, or windy it might be!

Date:

Astronomy

Sep. 11, 2013 Rise Set
Actual Time 7:19 AM MDT 8:00 PM MDT
Civil Twilight 6:50 AM MDT 8:28 PM MDT
Nautical Twilight 6:16 AM MDT 9:02 PM MDT
Astronomical Twilight 5:41 AM MDT 9:37 PM MDT
Moon 2:01 PM MDT (9/11) 11:50 PM MDT (9/11)
Length of Visible Light 13h 38m
Length of Day
12h 40m
Waxing Crescent, 39% of the Moon is Illuminated
Sep 11
Waxing Crescent
Sep 12
First Quarter
Sep 19
Full
Sep 26
Last Quarter
Oct 4
New

Hourly Weather History & Observations

Time (MDT) Temp. Dew Point Humidity Pressure Visibility Wind Dir Wind Speed Gust Speed Precip Events Conditions
12:58 AM 61.9 °F 41.0 °F 46% 29.93 in 10.0 mi Variable 3.5 mph - N/A   Clear
1:58 AM 61.5 °F 41.5 °F 48% 29.94 in 10.0 mi WNW 5.8 mph - N/A   Clear
2:58 AM 60.8 °F 41.2 °F 48% 29.93 in 10.0 mi NW 2.3 mph - N/A   Clear
3:58 AM 62.1 °F 41.2 °F 46% 30.00 in 10.0 mi Variable 4.6 mph - N/A   Clear
4:58 AM 55.8 °F 42.4 °F 61% 30.01 in 10.0 mi NE 4.6 mph - N/A   Clear
5:58 AM 54.1 °F 42.6 °F 65% 29.96 in 10.0 mi East 8.1 mph - N/A   Clear
6:58 AM 54.0 °F 42.8 °F 66% 29.97 in 10.0 mi ESE 2.3 mph - N/A   Clear
7:58 AM 55.0 °F 43.2 °F 64% 29.99 in 10.0 mi NE 3.5 mph - N/A   Clear
8:58 AM 62.6 °F 44.6 °F 52% 30.00 in 10.0 mi East 3.5 mph - N/A   Clear
9:58 AM 68.0 °F 44.6 °F 43% 30.00 in 10.0 mi East 3.5 mph - N/A   Clear
10:58 AM 75.7 °F 44.8 °F 33% 29.99 in 7.0 mi Variable 5.8 mph - N/A   Clear
11:59 AM 78.8 °F 44.6 °F 30% 30.06 in 10.0 mi SSW 6.9 mph - N/A   Partly Cloudy
12:55 PM 82.0 °F 41.9 °F 24% 29.99 in 7.0 mi Variable 5.8 mph - N/A   Clear
2:00 PM 86.0 °F 41.0 °F 20% 30.03 in 10.0 mi Variable 5.8 mph - N/A   Clear
2:55 PM 87.8 °F 41.0 °F 19% 30.01 in 10.0 mi WNW 6.9 mph - N/A   Partly Cloudy
3:56 PM 87.8 °F 39.2 °F 18% 29.91 in 10.0 mi Variable 4.6 mph - N/A   Scattered Clouds
4:55 PM 91.4 °F 39.2 °F 16% 29.89 in 10.0 mi NW 8.1 mph - N/A   Scattered Clouds
5:57 PM 91.4 °F 39.2 °F 16% 29.89 in 10.0 mi North 5.8 mph - N/A   Scattered Clouds
6:55 PM 87.8 °F 41.0 °F 19% 29.89 in 10.0 mi NNW 8.1 mph - N/A   Mostly Cloudy
7:56 PM 86.0 °F 42.8 °F 22% 29.91 in 10.0 mi East 11.5 mph 17.3 mph N/A   Mostly Cloudy
8:56 PM 82.4 °F 48.2 °F 30% 29.93 in 10.0 mi ESE 9.2 mph - N/A   Mostly Cloudy
9:56 PM 80.6 °F 51.8 °F 37% 29.94 in 10.0 mi ESE 13.8 mph - N/A   Overcast
10:56 PM 77.0 °F 51.8 °F 41% 29.94 in 10.0 mi SE 12.7 mph - N/A   Mostly Cloudy
11:56 PM 75.2 °F 51.8 °F 44% 29.94 in 10.0 mi SE 9.2 mph - N/A   Mostly Cloudy